OneWeb SL0560

operational
NORAD ID: 55145 Int'l Des: 2023-004 Owner: ONEWEBN Country: UK Constellation: oneweb
LEOCIRCULARPOLARONEWEB_TYPE

About OneWeb SL0560

Description loading...

Live Position

Loading 3D Globe...

Upcoming Passes

Altitude History

Altitude vs Time

uPlot chart will show altitude changes over time

Two-Line Element Set

1 55145U 23004F 25351.80579682 .00000013 00000-0 28175-6 0 9993
2 55145 87.9169 11.4945 0001752 84.7677 275.3655 13.18686055145804
Epoch: Dec 17, 2025 • Age: 17 hours

Current Status

Altitude 1197.6 km
Velocity 7.26 km/s
Sub-Earth Point 54.57°N, 106.86°E
Launch Date Jan 10, 2023
Age 2.9 years
Type internet

Technical Details

Classification Payload
Mass 148.00 kg
Dry Mass 140.00 kg
Total Mass 148.00 kg
Length 1.30 m
Diameter 1.00 m
Span 5.00 m
Shape Trapezoid+2 pan
Manufacturer ONEWUS
Bus Type ARROW
Phase Status In Orbit
Owner/State ONEWEBN/UK

Large Constellations

Loading constellations...